• en France
  • Liste des pays
  • À 7 jours
  • Température de l'eau
  • Carte satellitaire
  • Carte météo
  • Widgets météo
  • user-avatar
    Se connecter

    Météo par heure à Brégence

    Ce jour, 17 Octobre, Mercredi

    Heure Température Précipitation Vent Pression Humidité
    00:00 +7°C° 0 mm 1 m/s 648 mmHg 81%
    01:00 +6°C° 0 mm 2 m/s 648 mmHg 78%
    02:00 +6°C° 0 mm 2 m/s 648 mmHg 79%
    03:00 +7°C° 0 mm 1 m/s 648 mmHg 79%
    04:00 +6°C° 0 mm 1 m/s 647 mmHg 80%
    05:00 +6°C° 0 mm 1 m/s 647 mmHg 79%
    06:00 +6°C° 0 mm 1 m/s 647 mmHg 79%
    07:00 +6°C° 0 mm 1 m/s 647 mmHg 75%
    08:00 +8°C° 0 mm 1 m/s 648 mmHg 68%
    09:00 +11°C° 0 mm 1 m/s 648 mmHg 61%
    10:00 +12°C° 0 mm 0 m/s 649 mmHg 54%
    11:00 +14°C° 0 mm 1 m/s 649 mmHg 52%
    12:00 +15°C° 0 mm 1 m/s 649 mmHg 50%
    13:00 +16°C° 0 mm 2 m/s 649 mmHg 49%
    14:00 +16°C° 0 mm 2 m/s 649 mmHg 53%
    15:00 +15°C° 0 mm 2 m/s 648 mmHg 58%
    16:00 +14°C° 0 mm 2 m/s 648 mmHg 63%
    17:00 +12°C° 0 mm 2 m/s 648 mmHg 70%
    18:00 +10°C° 0 mm 1 m/s 647 mmHg 78%
    19:00 +8°C° 0 mm 1 m/s 647 mmHg 86%
    20:00 +8°C° 0 mm 1 m/s 647 mmHg 86%
    21:00 +8°C° 0 mm 1 m/s 647 mmHg 85%
    22:00 +8°C° 0 mm 1 m/s 647 mmHg 84%
    23:00 +7°C° 0 mm 1 m/s 647 mmHg 84%

    Demain, 18 Octobre, Jeudi

    Heure Température Précipitation Vent Pression Humidité
    00:00 +7°C° 0 mm 1 m/s 647 mmHg 84%
    01:00 +7°C° 0 mm 1 m/s 647 mmHg 84%
    02:00 +7°C° 0 mm 1 m/s 646 mmHg 84%
    03:00 +7°C° 0 mm 1 m/s 646 mmHg 84%
    04:00 +6°C° 0 mm 1 m/s 646 mmHg 84%
    05:00 +6°C° 0 mm 1 m/s 646 mmHg 84%
    06:00 +6°C° 0 mm 1 m/s 646 mmHg 84%
    07:00 +6°C° 0 mm 1 m/s 646 mmHg 84%
    08:00 +8°C° 0 mm 1 m/s 647 mmHg 78%
    09:00 +10°C° 0 mm 1 m/s 647 mmHg 71%
    10:00 +12°C° 0 mm 1 m/s 648 mmHg 65%
    11:00 +13°C° 0 mm 2 m/s 648 mmHg 62%
    12:00 +14°C° 0 mm 2 m/s 648 mmHg 60%
    13:00 +15°C° 0 mm 2 m/s 648 mmHg 57%
    14:00 +14°C° 0 mm 2 m/s 648 mmHg 61%
    15:00 +14°C° 0 mm 2 m/s 648 mmHg 64%
    16:00 +13°C° 0 mm 2 m/s 647 mmHg 68%
    17:00 +12°C° 0 mm 2 m/s 647 mmHg 76%
    18:00 +9°C° 0 mm 2 m/s 647 mmHg 84%
    19:00 +7°C° 0 mm 2 m/s 647 mmHg 92%
    20:00 +6°C° 0 mm 2 m/s 647 mmHg 91%
    21:00 +7°C° 0 mm 1 m/s 647 mmHg 91%
    22:00 +7°C° 0 mm 1 m/s 647 mmHg 91%
    23:00 +7°C° 0 mm 1 m/s 647 mmHg 90%

    Après-demain, 19 Octobre, Vendredi

    Heure Température Précipitation Vent Pression Humidité
    00:00 +6°C° 0 mm 1 m/s 647 mmHg 89%
    01:00 +6°C° 0 mm 1 m/s 647 mmHg 88%
    02:00 +6°C° 0 mm 1 m/s 647 mmHg 88%
    03:00 +6°C° 0 mm 1 m/s 647 mmHg 87%
    04:00 +6°C° 0 mm 1 m/s 647 mmHg 87%
    05:00 +6°C° 0 mm 1 m/s 647 mmHg 87%
    06:00 +5°C° 0 mm 1 m/s 647 mmHg 87%
    07:00 +5°C° 0 mm 1 m/s 647 mmHg 87%
    08:00 +8°C° 0 mm 1 m/s 648 mmHg 80%
    09:00 +10°C° 0 mm 1 m/s 649 mmHg 72%
    10:00 +12°C° 0 mm 1 m/s 650 mmHg 64%
    11:00 +13°C° 0 mm 1 m/s 650 mmHg 61%
    12:00 +14°C° 0 mm 2 m/s 650 mmHg 58%
    13:00 +15°C° 0 mm 2 m/s 650 mmHg 55%
    14:00 +14°C° 0 mm 2 m/s 650 mmHg 60%
    15:00 +14°C° 0 mm 2 m/s 650 mmHg 65%
    16:00 +13°C° 0 mm 2 m/s 650 mmHg 69%
    17:00 +10°C° 0 mm 2 m/s 650 mmHg 78%
    18:00 +9°C° 0 mm 1 m/s 649 mmHg 86%
    19:00 +7°C° 0 mm 1 m/s 649 mmHg 94%
    20:00 +7°C° 0 mm 1 m/s 649 mmHg 93%
    21:00 +7°C° 0 mm 1 m/s 649 mmHg 93%
    22:00 +6°C° 0 mm 1 m/s 650 mmHg 92%
    23:00 +6°C° 0 mm 1 m/s 650 mmHg 91%

    20 Octobre, Samedi

    Heure Température Précipitation Vent Pression Humidité
    00:00 +6°C° 0 mm 1 m/s 650 mmHg 91%
    01:00 +6°C° 0 mm 1 m/s 650 mmHg 90%
    02:00 +5°C° 0 mm 1 m/s 650 mmHg 89%
    03:00 +5°C° 0 mm 1 m/s 650 mmHg 89%
    04:00 +5°C° 0 mm 1 m/s 650 mmHg 89%
    05:00 +5°C° 0 mm 1 m/s 650 mmHg 89%
    06:00 +4°C° 0 mm 0 m/s 650 mmHg 89%
    07:00 +3°C° 0 mm 0 m/s 650 mmHg 89%
    08:00 +7°C° 0 mm 1 m/s 651 mmHg 82%
    09:00 +9°C° 0 mm 1 m/s 652 mmHg 75%
    10:00 +11°C° 0 mm 1 m/s 653 mmHg 68%
    11:00 +12°C° 0 mm 1 m/s 653 mmHg 65%
    12:00 +13°C° 0 mm 2 m/s 653 mmHg 62%
    13:00 +14°C° 0 mm 2 m/s 653 mmHg 58%
    14:00 +13°C° 0 mm 2 m/s 653 mmHg 63%
    15:00 +13°C° 0 mm 2 m/s 653 mmHg 67%
    16:00 +12°C° 0 mm 2 m/s 653 mmHg 71%
    17:00 +9°C° 0 mm 2 m/s 653 mmHg 79%
    18:00 +8°C° 0 mm 2 m/s 652 mmHg 87%
    19:00 +7°C° 0 mm 1 m/s 652 mmHg 95%
    20:00 +6°C° 0 mm 1 m/s 652 mmHg 94%
    21:00 +6°C° 0 mm 1 m/s 652 mmHg 94%
    22:00 +5°C° 0 mm 1 m/s 652 mmHg 94%
    23:00 +5°C° 0 mm 1 m/s 652 mmHg 91%

    21 Octobre, Dimanche

    Heure Température Précipitation Vent Pression Humidité
    00:00 +5°C° 0 mm 1 m/s 652 mmHg 88%
    01:00 +5°C° 0 mm 1 m/s 652 mmHg 86%
    02:00 +5°C° 0 mm 1 m/s 652 mmHg 83%
    03:00 +4°C° 0 mm 1 m/s 652 mmHg 80%
    04:00 +4°C° 0 mm 1 m/s 652 mmHg 77%
    05:00 +4°C° 0 mm 1 m/s 652 mmHg 75%
    06:00 +4°C° 0 mm 1 m/s 652 mmHg 73%
    07:00 +4°C° 0 mm 1 m/s 652 mmHg 71%
    08:00 +6°C° 0 mm 1 m/s 652 mmHg 65%
    09:00 +9°C° 0 mm 1 m/s 653 mmHg 59%
    10:00 +11°C° 0 mm 1 m/s 653 mmHg 53%
    11:00 +12°C° 0 mm 1 m/s 653 mmHg 51%
    12:00 +13°C° 0 mm 1 m/s 653 mmHg 49%
    13:00 +14°C° 0 mm 2 m/s 653 mmHg 46%
    14:00 +13°C° 0 mm 2 m/s 653 mmHg 53%
    15:00 +13°C° 0 mm 2 m/s 652 mmHg 59%
    16:00 +12°C° 0 mm 2 m/s 652 mmHg 65%
    17:00 +10°C° 0 mm 1 m/s 652 mmHg 73%
    18:00 +8°C° 0 mm 1 m/s 651 mmHg 81%
    19:00 +5°C° 0 mm 1 m/s 651 mmHg 90%
    20:00 +5°C° 0 mm 1 m/s 651 mmHg 88%
    21:00 +5°C° 0 mm 1 m/s 651 mmHg 87%
    22:00 +5°C° 0 mm 1 m/s 651 mmHg 86%
    23:00 +5°C° 0 mm 1 m/s 650 mmHg 84%

    22 Octobre, Lundi

    Heure Température Précipitation Vent Pression Humidité
    00:00 +4°C° 0 mm 1 m/s 650 mmHg 82%
    01:00 +4°C° 0 mm 1 m/s 650 mmHg 80%
    02:00 +4°C° 0 mm 1 m/s 650 mmHg 79%
    03:00 +4°C° 0 mm 1 m/s 650 mmHg 78%
    04:00 +4°C° 0 mm 1 m/s 649 mmHg 77%
    05:00 +4°C° 0 mm 1 m/s 650 mmHg 76%
    06:00 +4°C° 0 mm 1 m/s 650 mmHg 76%
    07:00 +3°C° 0 mm 1 m/s 650 mmHg 76%
    08:00 +5°C° 0 mm 1 m/s 650 mmHg 71%
    09:00 +7°C° 0 mm 1 m/s 651 mmHg 65%
    10:00 +9°C° 0 mm 2 m/s 651 mmHg 60%
    11:00 +9°C° 0 mm 2 m/s 651 mmHg 57%
    12:00 +10°C° 0 mm 2 m/s 652 mmHg 54%
    13:00 +11°C° 0 mm 3 m/s 652 mmHg 51%
    14:00 +11°C° 0 mm 3 m/s 651 mmHg 55%
    15:00 +10°C° 0 mm 3 m/s 651 mmHg 59%
    16:00 +9°C° 0 mm 3 m/s 651 mmHg 63%
    17:00 +7°C° 0 mm 3 m/s 651 mmHg 70%
    18:00 +5°C° 0 mm 2 m/s 651 mmHg 78%
    19:00 +3°C° 0 mm 2 m/s 650 mmHg 86%
    20:00 +3°C° 0 mm 2 m/s 650 mmHg 87%
    21:00 +4°C° 0 mm 1 m/s 650 mmHg 87%
    22:00 +3°C° 0 mm 1 m/s 650 mmHg 88%
    23:00 +3°C° 0 mm 1 m/s 650 mmHg 88%
    Voir plus